TimeEST,TemperatureF,Dew PointF,Humidity,Sea Level PressureIn,VisibilityMPH,Wind Direction,Wind SpeedMPH,Gust SpeedMPH,PrecipitationIn,Events,Conditions,WindDirDegrees,DateUTC
12:56 AM,52.0,50.0,93,30.10,-9999.0,North,16.1,25.3,N/A,Rain,Light Rain,360,2013-12-24 05:56:00
1:13 AM,52.0,48.9,89,30.08,-9999.0,North,17.3,25.3,N/A,Rain,Light Rain,10,2013-12-24 06:13:00
1:22 AM,51.1,48.9,92,30.08,-9999.0,North,19.6,26.5,N/A,Rain,Light Rain,360,2013-12-24 06:22:00
1:35 AM,50.0,48.0,93,30.08,-9999.0,North,21.9,26.5,N/A,Rain,Light Rain,360,2013-12-24 06:35:00
1:56 AM,50.0,48.0,93,30.09,-9999.0,North,18.4,-,N/A,Rain,Light Rain,10,2013-12-24 06:56:00
2:56 AM,48.9,46.0,90,30.09,-9999.0,North,17.3,26.5,N/A,Rain,Light Rain,350,2013-12-24 07:56:00
3:39 AM,48.0,46.0,93,30.07,-9999.0,North,18.4,24.2,N/A,Rain,Light Rain,360,2013-12-24 08:39:00
3:56 AM,48.9,46.0,90,30.08,-9999.0,North,18.4,26.5,N/A,Rain,Light Rain,10,2013-12-24 08:56:00
4:10 AM,48.9,46.0,90,30.07,-9999.0,North,16.1,24.2,N/A,Rain,Light Rain,360,2013-12-24 09:10:00
4:56 AM,48.0,46.0,93,30.08,-9999.0,North,15.0,-,N/A,Rain,Light Rain,350,2013-12-24 09:56:00
5:15 AM,48.0,45.0,89,30.06,-9999.0,North,19.6,26.5,N/A,Rain,Rain,360,2013-12-24 10:15:00
5:56 AM,46.9,44.1,90,30.09,-9999.0,North,16.1,-,N/A,Rain,Light Rain,360,2013-12-24 10:56:00
6:09 AM,46.9,44.1,90,30.08,-9999.0,North,18.4,26.5,N/A,Rain,Rain,360,2013-12-24 11:09:00
6:56 AM,46.0,43.0,89,30.14,-9999.0,North,16.1,25.3,N/A,Rain,Rain,360,2013-12-24 11:56:00
7:49 AM,45.0,42.1,90,30.14,-9999.0,North,18.4,26.5,N/A,,Overcast,360,2013-12-24 12:49:00
7:56 AM,45.0,41.0,86,30.16,-9999.0,North,18.4,26.5,N/A,,Overcast,360,2013-12-24 12:56:00
8:07 AM,45.0,42.1,90,30.15,-9999.0,North,19.6,25.3,N/A,,Overcast,350,2013-12-24 13:07:00
8:56 AM,45.0,42.1,90,30.17,-9999.0,NNW,17.3,24.2,N/A,,Overcast,340,2013-12-24 13:56:00
9:56 AM,45.0,41.0,86,30.19,-9999.0,North,13.8,-,N/A,,Overcast,350,2013-12-24 14:56:00
10:38 AM,45.0,39.0,80,30.19,-9999.0,North,16.1,24.2,N/A,,Overcast,350,2013-12-24 15:38:00
10:56 AM,45.0,37.9,76,30.20,-9999.0,North,16.1,23.0,N/A,,Overcast,350,2013-12-24 15:56:00
11:56 AM,45.0,37.9,76,30.20,-9999.0,NNW,18.4,-,N/A,,Overcast,330,2013-12-24 16:56:00
12:56 PM,46.0,37.9,73,30.19,-9999.0,NNW,15.0,-,N/A,,Overcast,340,2013-12-24 17:56:00
1:56 PM,46.0,37.0,71,30.20,-9999.0,NNW,13.8,-,N/A,,Mostly Cloudy,340,2013-12-24 18:56:00
2:56 PM,46.9,36.0,66,30.22,-9999.0,NNW,16.1,-,N/A,,Mostly Cloudy,330,2013-12-24 19:56:00
3:03 PM,46.9,36.0,66,30.21,-9999.0,NW,11.5,21.9,N/A,,Scattered Clouds,320,2013-12-24 20:03:00
3:56 PM,48.0,35.1,61,30.23,-9999.0,NNW,13.8,-,N/A,,Clear,330,2013-12-24 20:56:00
4:56 PM,46.0,34.0,63,30.27,-9999.0,NW,11.5,-,N/A,,Clear,320,2013-12-24 21:56:00
5:56 PM,45.0,34.0,65,30.29,-9999.0,NW,12.7,-,N/A,,Clear,320,2013-12-24 22:56:00
6:56 PM,45.0,30.9,58,30.33,-9999.0,NNW,12.7,-,N/A,,Clear,330,2013-12-24 23:56:00
7:56 PM,45.0,30.9,58,30.35,-9999.0,NNW,12.7,-,N/A,,Clear,330,2013-12-25 00:56:00
8:56 PM,44.1,28.9,55,30.37,-9999.0,NNW,16.1,-,N/A,,Partly Cloudy,340,2013-12-25 01:56:00